User: anonymous   Login
Location: Elstree
(51.6403°N, 0.2969°W)
Time: 04:21:02
(UTC+00:00)
Language:

Terra - Orbit

View from above orbital plane
View from above orbital plane
View from above satellite
View from above satellite

Ground track
Ground track

The orbit data is extracted from the following two-line orbital elements,

1 25994U 99068A   21213.83761785  .00000043  00000-0  19449-4 0  9993
2 25994  98.1741 287.4265 0001286  98.8181  35.9652 14.57128269150075
Epoch (UTC): 01 August 2021 20:06:10
Eccentricity: 0.0001286
inclination: 98.1741°
perigee height: 701 km
apogee height: 703 km
right ascension of ascending node: 287.4265°
argument of perigee: 98.8181°
revolutions per day: 14.57128269
mean anomaly at epoch: 35.9652°
orbit number at epoch: 15007

The dashed part of the orbit path shows where the satellite is in the earth's shadow,  

DLR